FW3866 Weather Reports


time (UTC)temp
C
wind
direction
speed
KPH
gust
KPH
rain 1hr
cm
rain 24hr
cm
rain mn
cm
humidity
%
barometer
mb
20260509043448 7 204 16.1 19.3 0.00 0.00 0.00 57 1008.1
20260509042948 7 203 16.1 17.7 0.00 0.00 0.00 57 1008.4
20260509042449 7 202 16.1 17.7 0.00 0.00 0.00 58 1008.4
20260509041948 7 200 14.5 16.1 0.00 0.00 0.00 58 1008.5
20260509041449 7 197 12.9 16.1 0.00 0.00 0.00 58 1008.6
20260509040950 7 197 11.3 14.5 0.00 0.00 0.00 60 1008.6
20260509035949 7 195 8.0 9.7 0.00 0.00 0.00 60 1008.7
20260509035450 7 180 1.6 6.4 0.00 0.00 0.00 60 1008.7
20260509034949 6 179 3.2 6.4 0.00 0.00 0.00 60 1008.9
20260509034447 6 169 3.2 6.4 0.00 0.00 0.00 61 1008.8
20260509033950 5 168 3.2 6.4 0.00 0.00 0.00 61 1009.0
20260509033448 5 168 4.8 6.4 0.00 0.00 0.00 61 1009.0
20260509032947 6 188 4.8 4.8 0.00 0.00 0.00 60 1009.0
20260509032448 6 189 3.2 6.4 0.00 0.00 0.00 59 1009.1
20260509031948 6 189 4.8 6.4 0.00 0.00 0.00 57 1009.2
20260509031448 6 196 3.2 4.8 0.00 0.00 0.00 55 1009.1
20260509030447 8 251 0.0 0.0 0.00 0.00 0.00 53 1009.2
20260509025946 8 251 0.0 0.0 0.00 0.00 0.00 53 1009.2
20260509025445 8 251 0.0 1.6 0.00 0.00 0.00 52 1009.2
20260509024946 8 251 0.0 3.2 0.00 0.00 0.00 50 1009.2
20260509024446 8 251 1.6 4.8 0.00 0.00 0.00 51 1009.3
20260509023943 9 251 3.2 4.8 0.00 0.00 0.00 51 1009.2
20260509023447 9 251 3.2 3.2 0.00 0.00 0.00 51 1009.3
20260509022945 10 251 0.0 3.2 0.00 0.00 0.00 49 1009.2
20260509022447 11 251 0.0 6.4 0.00 0.00 0.00 46 1009.3
20260509021946 11 251 3.2 6.4 0.00 0.00 0.00 46 1009.3
20260509021445 13 326 0.0 0.0 0.00 0.00 0.00 41 1009.2
20260509020946 13 326 0.0 0.0 0.00 0.00 0.00 38 1009.2
20260509020445 14 326 0.0 0.0 0.00 0.00 0.00 40 1009.3
20260509015946 15 326 0.0 3.2 0.00 0.00 0.00 35 1009.3
20260509014944 15 326 3.2 4.8 0.00 0.00 0.00 35 1009.4
20260509014447 15 326 1.6 4.8 0.00 0.00 0.00 34 1009.3
20260509013944 16 326 3.2 4.8 0.00 0.00 0.00 33 1009.4
20260509013444 17 326 1.6 4.8 0.00 0.00 0.00 32 1009.5
20260509012944 18 0.0 9.7 0.00 0.00 0.00 32 1009.5
20260509011443 19 329 8.0 14.5 0.00 0.00 0.00 30 1009.6
20260509010945 19 331 8.0 14.5 0.00 0.00 0.00 28 1009.7
20260509005943 20 344 8.0 20.9 0.00 0.00 0.00 28 1009.7
20260509005445 20 354 9.7 22.5 0.00 0.00 0.00 28 1009.7
20260509004943 20 344 12.9 22.5 0.00 0.00 0.00 27 1009.8
20260509004444 20 0 12.9 22.5 0.00 0.00 0.00 25 1009.7
20260509003942 20 355 14.5 22.5 0.00 0.00 0.00 25 1009.8
20260509003440 20 0 14.5 25.7 0.00 0.00 0.00 25 1009.8
20260509002944 20 337 12.9 25.7 0.00 0.00 0.00 25 1009.6
20260509002443 20 0 12.9 20.9 0.00 0.00 0.00 25 1009.6
20260509001944 21 341 9.7 27.4 0.00 0.00 0.00 26 1009.7
20260509001443 21 358 17.7 27.4 0.00 0.00 0.00 24 1009.7
20260509000942 21 0 19.3 27.4 0.00 0.00 0.00 24 1009.9
20260509000443 21 341 17.7 29.0 0.00 0.00 0.00 24 1009.8
20260508235943 21 338 19.3 29.0 0.00 0.00 0.00 24 1009.9
20260508235443 21 327 14.5 29.0 0.00 0.00 0.00 24 1009.9
20260508234943 21 348 16.1 33.8 0.00 0.00 0.00 23 1009.9
20260508234441 21 354 20.9 33.8 0.00 0.00 0.00 25 1009.9
20260508233941 21 324 22.5 35.4 0.00 0.00 0.00 24 1009.8
20260508233442 21 333 25.7 37.0 0.00 0.00 0.00 25 1009.6
20260508232941 21 340 24.1 37.0 0.00 0.00 0.00 24 1009.9
20260508232442 21 358 17.7 32.2 0.00 0.00 0.00 23 1010.0
20260508231438 21 354 22.5 30.6 0.00 0.00 0.00 22 1009.9
20260508230941 21 0 20.9 35.4 0.00 0.00 0.00 22 1009.9
20260508230441 21 316 24.1 35.4 0.00 0.00 0.00 23 1009.7
20260508225440 21 329 24.1 33.8 0.00 0.00 0.00 22 1009.7
20260508224942 21 8 24.1 38.6 0.00 0.00 0.00 22 1009.7
20260508224440 21 0 20.9 46.7 0.00 0.00 0.00 22 1009.8
20260508223940 21 341 29.0 46.7 0.00 0.00 0.00 22 1009.9
20260508223440 22 323 27.4 35.4 0.00 0.00 0.00 23 1009.8
20260508222940 21 331 24.1 35.4 0.00 0.00 0.00 23 1009.9
20260508222441 22 0 16.1 35.4 0.00 0.00 0.00 23 1009.9
20260508220939 21 1 20.9 43.5 0.00 0.00 0.00 21 1010.0
20260508215937 21 320 22.5 41.8 0.00 0.00 0.00 23 1009.6
20260508215438 21 355 20.9 43.5 0.00 0.00 0.00 23 1009.9
20260508214939 21 333 32.2 43.5 0.00 0.00 0.00 23 1009.7
20260508214440 21 351 20.9 46.7 0.00 0.00 0.00 24 1009.9
20260508213939 21 341 25.7 46.7 0.00 0.00 0.00 23 1010.0
20260508213439 22 354 30.6 43.5 0.00 0.00 0.00 23 1009.9
20260508211939 21 44 17.7 43.5 0.00 0.00 0.00 22 1009.9
20260508211438 21 327 29.0 54.7 0.00 0.00 0.00 22 1009.9
20260508210938 21 354 32.2 54.7 0.00 0.00 0.00 21 1009.9
20260508210439 22 330 29.0 41.8 0.00 0.00 0.00 21 1009.9
20260508205937 22 0 25.7 48.3 0.00 0.00 0.00 23 1009.9
20260508205437 22 344 30.6 48.3 0.00 0.00 0.00 25 1009.6
20260508204937 22 347 29.0 41.8 0.00 0.00 0.00 26 1009.6
20260508203937 22 341 30.6 49.9 0.00 0.00 0.00 26 1009.6
20260508202937 22 348 27.4 56.3 0.00 0.00 0.00 24 1009.6
20260508202436 22 324 38.6 56.3 0.00 0.00 0.00 25 1009.3
20260508201938 22 323 27.4 53.1 0.00 0.00 0.00 26 1009.5
20260508200939 22 333 27.4 49.9 0.00 0.00 0.00 25 1009.5
20260508200436 22 314 33.8 49.9 0.00 0.00 0.00 28 1009.2
20260508195936 22 321 29.0 46.7 0.00 0.00 0.00 30 1009.2
20260508195436 21 295 30.6 46.7 0.00 0.00 0.00 29 1009.2
20260508194935 21 319 29.0 49.9 0.00 0.00 0.00 32 1009.3
20260508194436 22 317 35.4 51.5 0.00 0.00 0.00 32 1009.0
20260508193938 22 336 27.4 51.5 0.00 0.00 0.00 33 1008.9
20260508193436 22 348 33.8 51.5 0.00 0.00 0.00 34 1009.4
20260508192435 -17 0 30.6 48.3 0.00 0.00 0.00 1009.4
20260508191936 21 317 33.8 48.3 0.00 0.00 0.00 36 1009.2
20260508190934 21 329 33.8 48.3 0.00 0.00 0.00 37 1009.3
20260508190434 22 0 29.0 46.7 0.00 0.00 0.00 37 1009.0
20260508185435 22 309 33.8 48.3 0.00 0.00 0.00 36 1009.0
20260508184436 21 298 33.8 48.3 0.00 0.00 0.00 33 1008.5
20260508183936 22 283 33.8 49.9 0.00 0.00 0.00 36 1008.9
20260508182933 22 309 30.6 53.1 0.00 0.00 0.00 31 1009.1
20260508182435 22 316 38.6 49.9 0.00 0.00 0.00 34 1009.1
20260508181933 22 319 37.0 51.5 0.00 0.00 0.00 34 1008.9
20260508181433 22 296 27.4 54.7 0.00 0.00 0.00 32 1009.0
20260508180933 22 286 37.0 54.7 0.00 0.00 0.00 34 1008.3
20260508175934 22 299 24.1 46.7 0.00 0.00 0.00 35 1008.0
20260508174931 21 316 25.7 43.5 0.00 0.00 0.00 36 1009.1
20260508174431 21 327 27.4 43.5 0.00 0.00 0.00 35 1009.3
20260508173433 21 313 30.6 46.7 0.00 0.00 0.00 37 1009.4
20260508172932 21 290 29.0 46.7 0.00 0.00 0.00 40 1009.3
20260508172432 21 286 37.0 49.9 0.00 0.00 0.00 38 1009.4
20260508171933 21 275 37.0 49.9 0.00 0.00 0.00 39 1009.2
20260508171432 21 314 27.4 43.5 0.00 0.00 0.00 39 1009.4
20260508170930 21 288 24.1 43.5 0.00 0.00 0.00 38 1009.3
20260508170430 21 295 25.7 38.6 0.00 0.00 0.00 36 1009.5
20260508165933 21 300 30.6 38.6 0.00 0.00 0.00 36 1009.6
20260508165431 21 293 27.4 46.7 0.00 0.00 0.00 36 1009.5
20260508164932 21 292 33.8 46.7 0.00 0.00 0.00 35 1009.3
20260508164433 21 307 24.1 41.8 0.00 0.00 0.00 37 1009.7
20260508163931 21 293 25.7 32.2 0.00 0.00 0.00 33 1009.7
20260508163430 21 309 20.9 30.6 0.00 0.00 0.00 36 1009.7
20260508162931 20 272 22.5 30.6 0.00 0.00 0.00 35 1009.7
20260508162432 20 296 20.9 33.8 0.00 0.00 0.00 34 1009.9
20260508161931 20 271 20.9 33.8 0.00 0.00 0.00 35 1009.8
20260508160931 20 289 19.3 32.2 0.00 0.00 0.00 36 1010.0
20260508160429 20 276 24.1 32.2 0.00 0.00 0.00 35 1009.7
20260508155931 19 296 25.7 30.6 0.00 0.00 0.00 37 1009.9
20260508154930 18 276 22.5 27.4 0.00 0.00 0.00 37 1010.1
20260508154430 18 298 20.9 27.4 0.00 0.00 0.00 39 1010.3
20260508153928 18 303 17.7 25.7 0.00 0.00 0.00 40 1010.3
20260508153431 18 288 19.3 25.7 0.00 0.00 0.00 39 1010.3
20260508152429 17 295 14.5 24.1 0.00 0.00 0.00 42 1010.4
20260508151929 16 293 16.1 24.1 0.00 0.00 0.00 41 1010.4
20260508151429 -17 289 17.7 24.1 0.00 0.00 0.00 1010.4
20260508150930 16 288 19.3 27.4 0.00 0.00 0.00 43 1010.5
20260508150427 15 271 16.1 27.4 0.00 0.00 0.00 44 1010.6
20260508145929 15 275 17.7 29.0 0.00 0.00 0.00 45 1010.3
20260508145429 15 279 14.5 29.0 0.00 0.00 0.00 46 1010.6
20260508144429 14 262 16.1 24.1 0.00 0.00 0.00 46 1010.8
20260508143427 13 290 16.1 25.7 0.00 0.00 0.00 49 1010.9
20260508142929 13 279 19.3 27.4 0.00 0.00 0.00 48 1010.9
20260508141928 12 286 16.1 25.7 0.00 0.00 0.00 52 1010.9
20260508141428 12 278 20.9 25.7 0.00 0.00 0.00 52 1010.7
20260508140928 12 286 16.1 24.1 0.00 0.00 0.00 52 1010.6
20260508140428 12 257 17.7 24.1 0.00 0.00 0.00 52 1010.6
20260508135927 11 274 17.7 20.9 0.00 0.00 0.00 52 1010.6
20260508134928 12 292 20.9 27.4 0.00 0.00 0.00 52 1010.6
20260508134427 11 281 20.9 27.4 0.00 0.00 0.00 52 1010.4
20260508133927 11 268 16.1 24.1 0.00 0.00 0.00 51 1010.6
20260508133427 11 289 17.7 24.1 0.00 0.00 0.00 51 1010.5
20260508131925 11 254 9.7 14.5 0.00 0.00 0.00 53 1010.5
20260508131426 10 261 8.0 11.3 0.00 0.00 0.00 54 1010.5
20260508130427 8 316 3.2 6.4 0.00 0.00 0.00 65 1010.4
20260508125925 7 319 3.2 4.8 0.00 0.00 0.00 65 1010.5
20260508125425 6 319 3.2 6.4 0.00 0.00 0.00 66 1010.5
20260508124427 5 319 3.2 6.4 0.00 0.00 0.00 68 1010.4
20260508123925 5 319 3.2 6.4 0.00 0.00 0.00 69 1010.5
20260508123425 4 319 4.8 6.4 0.00 0.00 0.00 70 1010.3
20260508122926 3 319 4.8 6.4 0.00 0.00 0.00 72 1010.4
20260508122424 3 319 6.4 6.4 0.00 0.00 0.00 73 1010.4
20260508121924 2 319 1.6 4.8 0.00 0.00 0.00 73 1010.0
20260508121426 2 319 3.2 4.8 0.00 0.00 0.00 73 1010.0
20260508120925 2 316 1.6 1.6 0.00 0.00 0.00 72 1010.1
20260508120425 1 316 0.0 4.8 0.00 0.00 0.00 72 1010.1
20260508115425 1 316 3.2 4.8 0.00 0.00 0.00 70 1010.1
20260508114925 1 316 3.2 4.8 0.00 0.00 0.00 68 1010.1
20260508114424 2 316 0.0 4.8 0.00 0.00 0.00 66 1009.9
20260508113924 2 316 0.0 4.8 0.00 0.00 0.00 66 1009.8
20260508113424 2 316 0.0 0.0 0.00 0.00 0.00 64 1009.9
20260508112924 2 316 0.0 4.8 0.00 0.00 0.00 63 1009.8
20260508112423 3 316 1.6 6.4 0.00 0.00 0.00 60 1009.9
20260508111423 5 316 6.4 9.7 0.00 0.00 0.00 56 1010.1
20260508110924 5 314 6.4 9.7 0.00 0.00 0.00 54 1010.1
20260508110423 6 306 4.8 8.0 0.00 0.00 0.00 53 1010.0
20260508105424 -17 219 4.8 6.4 0.00 0.00 0.00 1010.1
20260508104422 6 209 1.6 3.2 0.00 0.00 0.00 52 1010.0
20260508103921 6 209 1.6 6.4 0.00 0.00 0.00 53 1010.0
20260508102423 6 209 6.4 8.0 0.00 0.00 0.00 53 1010.1
20260508101921 6 173 1.6 4.8 0.00 0.00 0.00 53 1010.1
20260508101423 7 173 3.2 6.4 0.00 0.00 0.00 52 1010.1
20260508100924 7 172 1.6 6.4 0.00 0.00 0.00 51 1010.3
20260508100421 7 172 4.8 9.7 0.00 0.00 0.00 50 1010.3
20260508095924 7 172 3.2 9.7 0.00 0.00 0.00 50 1010.1
20260508095423 7 172 6.4 8.0 0.00 0.00 0.00 50 1010.1
20260508094422 7 165 4.8 9.7 0.00 0.00 0.00 51 1010.1
20260508093922 7 164 6.4 9.7 0.00 0.00 0.00 50 1009.9
20260508092922 8 200 6.4 8.0 0.00 0.00 0.00 49 1009.9
20260508092420 8 179 6.4 8.0 0.00 0.00 0.00 47 1010.0
20260508091922 8 189 4.8 6.4 0.00 0.00 0.00 46 1010.0
20260508091421 8 202 4.8 6.4 0.00 0.00 0.00 48 1010.3
20260508090921 8 202 3.2 8.0 0.00 0.00 0.00 47 1010.1
20260508090420 8 202 4.8 8.0 0.00 0.00 0.00 46 1010.1
20260508085921 -17 202 4.8 11.3 0.00 0.00 0.00 1010.3
20260508084922 8 206 11.3 16.1 0.00 0.00 0.00 47 1010.4
20260508084420 8 206 11.3 14.5 0.00 0.00 0.00 47 1010.4
20260508083919 8 192 8.0 11.3 0.00 0.00 0.00 47 1010.3
20260508082418 8 192 9.7 14.5 0.00 0.00 0.00 49 1010.5
20260508081919 7 202 9.7 14.5 0.00 0.00 0.00 52 1010.6
20260508081419 6 199 12.9 14.5 0.00 0.00 0.00 54 1010.6
20260508080418 5 195 9.7 11.3 0.00 0.00 0.00 54 1010.7
20260508075919 5 189 9.7 11.3 0.00 0.00 0.00 54 1010.7
20260508075420 5 193 9.7 11.3 0.00 0.00 0.00 53 1010.6
20260508074919 5 193 9.7 11.3 0.00 0.00 0.00 53 1010.7
20260508074418 5 193 8.0 11.3 0.00 0.00 0.00 53 1010.7
20260508073919 5 193 6.4 11.3 0.00 0.00 0.00 52 1010.7
20260508073418 5 193 8.0 14.5 0.00 0.00 0.00 52 1010.7
20260508072917 5 192 9.7 16.1 0.00 0.00 0.00 52 1010.7
20260508071917 -17 189 9.7 14.5 0.00 0.00 0.00 1010.7
20260508071419 6 176 6.4 9.7 0.00 0.00 0.00 51 1010.7
20260508070918 6 137 3.2 6.4 0.00 0.00 0.00 50 1010.8
20260508070417 6 135 3.2 8.0 0.00 0.00 0.00 49 1010.8
20260508065917 6 0 4.8 8.0 0.00 0.00 0.00 49 1010.9
20260508065417 6 135 3.2 4.8 0.00 0.00 0.00 49 1010.9
20260508064917 6 135 3.2 8.0 0.00 0.00 0.00 49 1010.9
20260508064417 6 135 6.4 8.0 0.00 0.00 0.00 49 1010.9
20260508063917 6 127 4.8 8.0 0.00 0.00 0.00 50 1010.9
20260508062917 6 127 3.2 6.4 0.00 0.00 0.00 53 1011.1
20260508062417 5 127 4.8 6.4 0.00 0.00 0.00 57 1011.0
20260508061415 6 96 6.4 6.4 0.00 0.00 0.00 56 1011.1
20260508060415 6 94 6.4 8.0 0.00 0.00 0.00 56 1011.1
20260508055917 6 93 6.4 8.0 0.00 0.00 0.00 56 1011.1
20260508055416 6 93 6.4 6.4 0.00 0.00 0.00 55 1011.2
20260508054915 7 93 6.4 6.4 0.00 0.00 0.00 56 1011.1
20260508054416 7 93 4.8 6.4 0.00 0.00 0.00 56 1011.2
20260508053915 7 93 4.8 6.4 0.00 0.00 0.00 57 1011.2
20260508053414 7 93 4.8 6.4 0.00 0.00 0.00 57 1011.3
20260508052914 7 93 4.8 6.4 0.00 0.00 0.00 58 1011.3
20260508052415 6 93 4.8 6.4 0.00 0.00 0.00 58 1011.3
20260508051914 6 93 6.4 6.4 0.00 0.00 0.00 59 1011.3
20260508050915 6 93 4.8 8.0 0.00 0.00 0.00 60 1011.4
20260508050415 6 93 6.4 8.0 0.00 0.00 0.00 60 1011.3
20260508045913 6 93 6.4 8.0 0.00 0.00 0.00 59 1011.3
20260508045415 6 90 6.4 8.0 0.00 0.00 0.00 59 1011.3
20260508044913 6 87 8.0 8.0 0.00 0.00 0.00 60 1011.4
20260508044414 6 86 6.4 8.0 0.00 0.00 0.00 62 1011.4